Location: PSU-Greenbush Astrophysical Observatory
(37.5140°N, 94.9880°W)
Time: 05:44:49
(UTC-06:00)

Courier 1B Rocket - All Passes

Search period start: 20 January 2020 00:00
Search period end: 30 January 2020 00:00
Orbit: 920 x 1202 km, 28.2° (Epoch: 19 January)

Date Brightness Start Highest point End Pass type
(mag) Time Alt. Az. Time Alt. Az. Time Alt. Az.
20 Jan - 13:18:00 10° SW 13:23:19 25° SSE 13:28:24 10° ESE daylight
20 Jan - 15:10:15 10° WSW 15:16:07 36° S 15:21:45 10° ESE daylight
20 Jan - 17:03:27 10° WSW 17:08:54 31° S 17:14:16 10° SE daylight
20 Jan - 18:57:53 10° WSW 19:01:28 16° SSW 19:05:05 10° SSE visible
21 Jan - 12:17:38 10° SSW 12:22:29 20° SSE 12:27:07 10° ESE daylight
21 Jan - 14:09:20 10° SW 14:15:16 34° S 14:20:55 10° ESE daylight
21 Jan - 16:02:21 10° WSW 16:08:06 34° S 16:13:41 10° ESE daylight
21 Jan - 17:56:13 10° WSW 18:00:45 21° SSW 18:05:15 10° SSE visible
22 Jan - 11:17:40 10° S 11:21:38 16° SSE 11:25:28 10° ESE daylight
22 Jan - 13:08:30 10° SW 13:14:24 30° SSE 13:19:59 10° ESE daylight
22 Jan - 15:01:16 10° WSW 15:07:16 37° S 15:12:59 10° ESE daylight
22 Jan - 16:54:50 10° WSW 17:00:00 26° SSW 17:05:05 10° SE daylight
22 Jan - 18:51:11 10° SW 18:52:29 11° SSW 18:53:45 10° SSW visible
23 Jan - 10:18:43 10° S 10:20:46 11° SSE 10:22:48 10° SE daylight
23 Jan - 12:07:47 10° SW 12:13:31 26° SSE 12:18:55 10° ESE daylight
23 Jan - 14:00:13 10° WSW 14:06:24 37° S 14:12:14 10° ESE daylight
23 Jan - 15:53:35 10° WSW 15:59:13 31° SSW 16:04:40 10° SE daylight
23 Jan - 17:48:13 10° WSW 17:51:46 16° SSW 17:55:18 10° S daylight
24 Jan - 11:07:18 10° SSW 11:12:37 22° SSE 11:17:41 10° ESE daylight
24 Jan - 12:59:12 10° SW 13:05:29 35° S 13:11:24 10° ESE daylight
24 Jan - 14:52:22 10° WSW 14:58:24 35° S 15:04:07 10° ESE daylight
24 Jan - 16:46:24 10° WSW 16:51:04 21° SSW 16:55:37 10° SSE daylight
25 Jan - 10:07:11 10° SSW 10:11:42 17° SSE 10:16:04 10° ESE daylight
25 Jan - 11:58:17 10° SW 12:04:33 32° SSE 12:10:29 10° ESE daylight
25 Jan - 13:51:11 10° WSW 13:57:31 38° S 14:03:28 10° ESE daylight
25 Jan - 15:44:55 10° WSW 15:50:19 27° SSW 15:55:29 10° SE daylight
25 Jan - 17:41:34 10° SW 17:42:45 11° SSW 17:43:57 10° SSW daylight
26 Jan - 09:07:52 10° S 09:10:48 12° SSE 09:13:40 10° SE daylight
26 Jan - 10:57:29 10° SW 11:03:36 28° SSE 11:09:25 10° ESE daylight
26 Jan - 12:50:02 10° WSW 12:56:35 38° S 13:02:43 10° ESE daylight
26 Jan - 14:43:33 10° WSW 14:49:30 32° SSW 14:55:08 10° SE daylight
26 Jan - 16:38:20 10° WSW 16:42:04 16° SSW 16:45:42 10° S daylight
27 Jan - 09:56:56 10° SSW 10:02:39 23° SSE 10:08:07 10° ESE daylight
27 Jan - 11:48:57 10° WSW 11:55:37 37° S 12:01:51 10° ESE daylight
27 Jan - 13:42:15 10° WSW 13:48:37 36° S 13:54:36 10° ESE daylight
27 Jan - 15:36:25 10° WSW 15:41:20 22° SSW 15:46:03 10° SSE daylight
28 Jan - 08:56:45 10° SSW 09:01:41 18° SSE 09:06:29 10° ESE daylight
28 Jan - 10:47:59 10° SW 10:54:37 34° SSE 11:00:53 10° ESE daylight
28 Jan - 12:40:59 10° WSW 12:47:40 39° S 12:53:55 10° ESE daylight
28 Jan - 14:34:49 10° WSW 14:40:32 28° SSW 14:45:58 10° SE daylight
28 Jan - 16:31:26 10° SW 16:33:00 11° SSW 16:34:33 10° SSW daylight
29 Jan - 07:57:18 10° S 08:00:45 13° SSE 08:04:09 10° SE daylight
29 Jan - 09:47:10 10° SW 09:53:36 30° SSE 09:59:46 10° ESE daylight
29 Jan - 11:39:47 10° WSW 11:46:40 40° S 11:53:08 10° ESE daylight
29 Jan - 13:33:22 10° WSW 13:39:40 33° SSW 13:45:36 10° SE daylight
29 Jan - 15:28:16 10° WSW 15:32:17 16° SSW 15:36:11 10° S daylight
